FW8740 Weather Reports


Display with metric or nautical units.
time (UTC)temp
F
wind
direction
speed
MPH
gust
MPH
rain 1hr
in
rain 24hr
in
rain mn
in
humidity
%
barometer
mb
20260905073326 65 97 0.0 0.0 0.00 0.00 0.00 95 1013.3
20260905072826 65 98 0.0 1.0 0.00 0.00 0.00 95 1013.2
20260905072321 65 93 0.0 0.0 0.00 0.00 0.00 95 1013.4
20260905071817 65 99 0.0 0.0 0.00 0.00 0.00 95 1013.3
20260905071313 65 102 0.0 0.0 0.00 0.00 0.00 95 1013.3
20260905070808 65 98 0.0 1.0 0.00 0.00 0.00 95 1013.4
20260905070304 65 97 0.0 0.0 0.00 0.00 0.00 95 1013.2
20260905065757 65 102 0.0 0.0 0.00 0.00 0.00 94 1013.4
20260905065250 65 102 0.0 0.0 0.00 0.00 0.00 94 1013.2
20260905064746 65 102 0.0 0.0 0.00 0.00 0.00 94 1013.6
20260905064241 65 100 0.0 0.0 0.00 0.00 0.00 94 1013.5
20260905063740 65 102 0.0 0.0 0.00 0.00 0.00 94 1013.5
20260905063236 65 100 0.0 0.0 0.00 0.00 0.00 94 1013.6
20260905062732 65 102 0.0 0.0 0.00 0.00 0.00 94 1013.4
20260905062232 65 100 0.0 0.0 0.00 0.00 0.00 94 1013.7
20260905061731 65 102 0.0 0.0 0.00 0.00 0.00 94 1013.8
20260905061226 65 102 0.0 0.0 0.00 0.00 0.00 94 1013.8
20260905060720 65 101 0.0 0.0 0.00 0.00 0.00 94 1013.9
20260905060218 65 101 0.0 0.0 0.00 0.00 0.00 95 1013.8
20260905055715 65 101 0.0 0.0 0.00 0.00 0.00 95 1013.8
20260905055211 65 99 0.0 0.0 0.00 0.00 0.00 95 1013.8
20260905054706 65 102 0.0 0.0 0.00 0.00 0.00 95 1013.9
20260905054203 65 101 0.0 0.0 0.00 0.00 0.00 95 1013.9
20260905053702 65 99 0.0 0.0 0.00 0.00 0.00 95 1014.0
20260905053157 65 100 0.0 0.0 0.00 0.00 0.00 95 1014.1
20260905052657 65 98 0.0 0.0 0.00 0.00 0.00 95 1014.2
20260905052152 66 99 0.0 0.0 0.00 0.00 0.00 95 1014.1
20260905051646 66 88 0.0 0.0 0.00 0.00 0.00 95 1014.1
20260905051143 66 98 0.0 0.0 0.00 0.00 0.00 94 1014.1
20260905050639 66 95 0.0 0.0 0.00 0.00 0.00 94 1014.1
20260905050136 66 100 0.0 0.0 0.00 0.00 0.00 94 1014.4
20260905045635 66 96 0.0 0.0 0.00 0.00 0.00 94 1014.2
20260905045131 66 101 0.0 0.0 0.00 0.00 0.00 94 1014.2
20260905044631 66 101 0.0 0.0 0.00 0.00 0.00 94 1014.5
20260905044126 66 98 0.0 0.0 0.00 0.00 0.00 94 1014.5
20260905043624 66 98 0.0 0.0 0.00 0.00 0.00 94 1014.8
20260905043120 66 99 0.0 0.0 0.00 0.00 0.00 94 1014.5
20260905042618 66 96 0.0 0.0 0.00 0.00 0.00 94 1014.3
20260905042114 66 94 0.0 1.0 0.00 0.00 0.00 94 1014.5
20260905041609 66 63 1.0 1.0 0.00 0.00 0.00 94 1014.6
20260905041105 66 104 0.0 0.0 0.00 0.00 0.00 94 1014.2
20260905040605 66 106 0.0 0.0 0.00 0.00 0.00 94 1014.2
20260905040103 66 106 0.0 0.0 0.00 0.00 0.00 94 1014.3
20260905035559 66 106 0.0 0.0 0.00 0.10 0.10 94 1014.4
20260905035055 66 104 0.0 0.0 0.00 0.10 0.10 94 1014.6
20260905034551 66 105 0.0 0.0 0.00 0.10 0.10 94 1014.4
20260905034050 66 106 0.0 0.0 0.00 0.10 0.10 94 1014.4
20260905033545 66 107 0.0 0.0 0.00 0.10 0.10 94 1014.7
20260905033041 66 108 0.0 0.0 0.00 0.10 0.10 94 1014.6
20260905032540 65 108 0.0 0.0 0.00 0.10 0.10 94 1014.6
20260905032036 65 108 0.0 0.0 0.00 0.10 0.10 94 1014.7
20260905031532 66 107 0.0 0.0 0.00 0.10 0.10 94 1014.6
20260905031031 66 103 0.0 0.0 0.00 0.10 0.10 94 1014.6
20260905030527 66 93 0.0 1.0 0.00 0.10 0.10 94 1014.5
20260905030027 66 92 0.0 1.0 0.00 0.10 0.10 94 1014.4
20260905025522 66 90 0.0 1.0 0.00 0.10 0.10 94 1014.3
20260905025018 65 92 0.0 0.0 0.00 0.10 0.10 94 1014.5
20260905024513 65 105 0.0 0.0 0.00 0.10 0.10 94 1014.3
20260905024008 66 105 0.0 0.0 0.00 0.10 0.10 94 1014.2
20260905023503 66 106 0.0 0.0 0.00 0.10 0.10 94 1014.2
20260905023003 66 105 0.0 0.0 0.00 0.10 0.10 94 1014.4
20260905022457 66 101 0.0 0.0 0.00 0.10 0.10 94 1014.2
20260905021953 66 104 0.0 0.0 0.00 0.10 0.10 94 1014.2
20260905021452 67 79 1.0 1.0 0.00 0.10 0.10 94 1014.2
20260905020947 67 91 0.0 1.0 0.00 0.10 0.10 93 1014.4
20260905020442 67 97 0.0 0.0 0.00 0.10 0.10 93 1014.5
20260905015941 67 93 0.0 1.0 0.00 0.10 0.10 93 1014.5
20260905015440 66 94 0.0 0.0 0.00 0.10 0.10 94 1014.4
20260905014939 66 111 0.0 0.0 0.00 0.10 0.10 94 1014.5
20260905014435 66 112 0.0 0.0 0.00 0.10 0.10 94 1014.4
20260905013930 67 113 0.0 0.0 0.00 0.10 0.10 94 1014.3
20260905013427 67 113 0.0 0.0 0.00 0.10 0.10 93 1014.1
20260905012921 67 114 0.0 0.0 0.00 0.10 0.10 93 1014.4
20260905012417 67 115 0.0 0.0 0.00 0.10 0.10 93 1014.5
20260905011914 67 117 0.0 0.0 0.00 0.10 0.10 93 1014.3
20260905011409 67 117 0.0 0.0 0.00 0.10 0.10 93 1014.4
20260905010904 67 116 0.0 0.0 0.00 0.10 0.10 93 1014.3
20260905010359 68 122 0.0 1.0 0.00 0.10 0.10 93 1014.6
20260905005855 68 117 0.0 0.0 0.00 0.10 0.10 92 1014.4
20260905005351 68 112 0.0 0.0 0.00 0.10 0.10 92 1014.6
20260905004845 68 106 0.0 0.0 0.00 0.10 0.10 91 1014.5
20260905004340 68 106 0.0 0.0 0.00 0.10 0.10 91 1014.2
20260905003835 69 92 1.0 1.0 0.00 0.10 0.10 91 1014.2
20260905003331 69 102 0.0 0.0 0.00 0.10 0.10 89 1014.2
20260905002826 69 105 0.0 0.0 0.00 0.10 0.10 88 1014.2
20260905002320 70 100 0.0 1.0 0.00 0.10 0.10 88 1014.3
20260905001816 70 88 0.0 1.0 0.00 0.10 0.10 86 1014.3
20260905001315 70 98 0.0 0.0 0.00 0.10 0.10 85 1014.2
20260905000811 70 100 0.0 0.0 0.00 0.10 0.10 86 1014.1
20260905000306 71 105 0.0 0.0 0.00 0.10 0.10 85 1014.0
20260904235801 71 110 0.0 0.0 0.00 0.10 0.10 85 1014.1
20260904235256 71 112 0.0 0.0 0.00 0.10 0.10 84 1014.1
20260904234751 71 117 0.0 0.0 0.00 0.10 0.10 84 1014.1
20260904234246 72 115 0.0 0.0 0.00 0.10 0.10 83 1014.1
20260904233742 72 123 0.0 0.0 0.00 0.10 0.10 82 1013.9
20260904233238 72 120 0.0 0.0 0.00 0.10 0.10 82 1013.8
20260904232734 73 115 0.0 0.0 0.00 0.10 0.10 82 1014.0
20260904232230 74 112 0.0 0.0 0.00 0.10 0.10 81 1013.9
20260904231725 74 110 0.0 1.0 0.00 0.10 0.10 79 1013.8
20260904231221 75 114 0.0 0.0 0.00 0.10 0.10 78 1014.0
20260904230720 75 111 0.0 1.0 0.00 0.10 0.10 76 1014.0
20260904230215 76 94 0.0 1.0 0.00 0.10 0.10 76 1013.9
20260904225714 76 105 0.0 1.0 0.00 0.10 0.10 73 1013.7
20260904225208 76 218 3.0 5.0 0.00 0.10 0.10 73 1013.8
20260904224707 77 77 1.0 2.0 0.00 0.10 0.10 72 1013.7
20260904224203 77 105 0.0 1.0 0.00 0.10 0.10 71 1014.0
20260904223702 78 85 2.0 2.0 0.00 0.10 0.10 70 1014.1
20260904223157 78 111 1.0 2.0 0.00 0.10 0.10 70 1014.0
20260904222653 78 34 2.0 3.0 0.00 0.10 0.10 69 1013.7
20260904222148 78 113 2.0 6.0 0.00 0.10 0.10 69 1013.8
20260904221648 78 101 1.0 3.0 0.00 0.10 0.10 68 1013.8
20260904221143 79 79 1.0 2.0 0.00 0.10 0.10 68 1013.8
20260904220637 79 0 2.0 2.0 0.00 0.10 0.10 67 1013.9
20260904220132 80 111 1.0 2.0 0.00 0.10 0.10 66 1013.6
20260904215627 81 68 1.0 5.0 0.00 0.10 0.10 66 1013.5
20260904215123 82 104 1.0 6.0 0.00 0.10 0.10 63 1013.6
20260904214623 82 338 2.0 3.0 0.00 0.10 0.10 62 1013.8
20260904214119 82 119 1.0 3.0 0.00 0.10 0.10 63 1013.8
20260904213617 82 110 0.0 3.0 0.00 0.10 0.10 62 1013.8
20260904213113 83 87 4.0 6.0 0.00 0.10 0.10 60 1013.8
20260904212608 83 55 2.0 5.0 0.00 0.10 0.10 61 1013.5
20260904212103 84 355 2.0 2.0 0.00 0.10 0.10 60 1013.6
20260904211602 84 49 3.0 3.0 0.00 0.10 0.10 58 1013.5
20260904211058 84 138 1.0 3.0 0.00 0.10 0.10 62 1013.7
20260904210557 84 297 4.0 6.0 0.00 0.10 0.10 59 1013.6
20260904210053 84 91 1.0 1.0 0.00 0.10 0.10 60 1013.8
20260904205548 84 62 1.0 5.0 0.00 0.10 0.10 60 1014.0
20260904205045 84 70 1.0 3.0 0.00 0.10 0.10 58 1013.9
20260904204541 83 42 1.0 5.0 0.00 0.10 0.10 59 1014.0
20260904204037 84 36 1.0 3.0 0.00 0.10 0.10 59 1013.9
20260904203532 84 69 2.0 2.0 0.00 0.10 0.10 59 1013.9
20260904203029 82 109 1.0 3.0 0.00 0.10 0.10 63 1014.2
20260904202524 83 75 1.0 6.0 0.00 0.10 0.10 60 1014.2
20260904202021 84 62 1.0 7.0 0.00 0.10 0.10 58 1014.2
20260904201515 84 58 2.0 3.0 0.00 0.10 0.10 61 1013.9
20260904201011 84 78 1.0 5.0 0.00 0.10 0.10 62 1013.9
20260904200509 83 93 1.0 3.0 0.00 0.10 0.10 61 1014.1
20260904200005 82 14 1.0 2.0 0.00 0.10 0.10 65 1014.2
20260904195503 82 34 0.0 1.0 0.00 0.10 0.10 67 1014.1
20260904195002 82 140 1.0 3.0 0.00 0.10 0.10 63 1014.0
20260904194457 81 58 1.0 3.0 0.00 0.10 0.10 67 1014.1
20260904193952 81 126 1.0 2.0 0.00 0.10 0.10 67 1013.9
20260904193447 81 94 0.0 2.0 0.00 0.10 0.10 65 1014.5
20260904192942 82 109 0.0 2.0 0.00 0.10 0.10 66 1014.4
20260904192437 84 99 0.0 1.0 0.00 0.10 0.10 66 1014.3
20260904191934 83 111 0.0 1.0 0.00 0.10 0.10 67 1014.4
20260904191430 82 144 1.0 2.0 0.00 0.10 0.10 64 1014.4
20260904190927 82 128 1.0 2.0 0.00 0.10 0.10 64 1014.6
20260904190427 82 95 0.0 2.0 0.00 0.10 0.10 68 1014.7
20260904185923 83 136 2.0 3.0 0.00 0.10 0.10 63 1014.5
20260904185419 83 294 5.0 7.0 0.00 0.10 0.10 62 1014.7
20260904184919 83 80 3.0 5.0 0.00 0.10 0.10 63 1014.6
20260904184413 82 118 1.0 2.0 0.00 0.10 0.10 68 1014.8
20260904183909 83 116 2.0 3.0 0.00 0.10 0.10 66 1014.6
20260904183404 82 131 1.0 3.0 0.00 0.10 0.10 69 1014.6
20260904182859 84 166 1.0 2.0 0.00 0.10 0.10 66 1014.7
20260904182354 84 231 1.0 1.0 0.00 0.10 0.10 65 1014.8
20260904181849 82 328 2.0 3.0 0.00 0.10 0.10 63 1014.6
20260904181344 83 103 2.0 3.0 0.00 0.10 0.10 65 1014.9
20260904180839 84 114 1.0 2.0 0.00 0.10 0.10 62 1014.6
20260904180335 83 118 1.0 6.0 0.00 0.10 0.10 63 1014.4
20260904175834 82 214 1.0 5.0 0.00 0.10 0.10 65 1014.3
20260904175334 84 74 2.0 3.0 0.00 0.10 0.10 63 1014.4
20260904174832 82 125 1.0 2.0 0.00 0.10 0.10 65 1014.4
20260904174329 83 118 2.0 7.0 0.00 0.10 0.10 65 1014.6
20260904173825 82 301 2.0 5.0 0.00 0.10 0.10 65 1014.7
20260904173320 83 351 2.0 3.0 0.00 0.10 0.10 65 1014.6
20260904172816 82 107 1.0 2.0 0.00 0.10 0.10 69 1014.7
20260904172315 80 69 1.0 5.0 0.00 0.10 0.10 66 1014.4
20260904171810 81 55 3.0 5.0 0.00 0.10 0.10 65 1014.6
20260904171305 82 84 1.0 6.0 0.00 0.10 0.10 67 1014.7
20260904170801 82 55 1.0 5.0 0.00 0.10 0.10 67 1014.6
20260904170257 82 121 2.0 2.0 0.00 0.10 0.10 68 1014.5
20260904165755 80 118 2.0 2.0 0.00 0.10 0.10 70 1014.7
20260904165250 79 111 1.0 3.0 0.00 0.10 0.10 72 1014.6
20260904164744 80 109 1.0 3.0 0.00 0.10 0.10 71 1014.9
20260904164240 81 106 2.0 5.0 0.00 0.10 0.10 71 1014.7
20260904163736 80 79 1.0 2.0 0.00 0.10 0.10 72 1014.6
20260904163231 80 319 1.0 2.0 0.00 0.10 0.10 72 1014.8
20260904162730 79 86 1.0 2.0 0.00 0.10 0.10 74 1014.7
20260904162225 79 72 1.0 5.0 0.00 0.10 0.10 75 1014.7
20260904161721 78 91 0.0 2.0 0.00 0.10 0.10 76 1014.9
20260904161215 79 77 3.0 5.0 0.00 0.10 0.10 73 1014.8
20260904160711 82 44 3.0 6.0 0.00 0.10 0.10 70 1014.9
20260904160207 82 186 2.0 2.0 0.00 0.10 0.10 70 1014.6
20260904155707 82 62 2.0 5.0 0.00 0.10 0.10 68 1014.5
20260904155206 81 158 1.0 2.0 0.00 0.10 0.10 73 1014.7
20260904154704 80 3 1.0 3.0 0.00 0.10 0.10 71 1014.8
20260904154159 80 95 0.0 6.0 0.00 0.10 0.10 71 1014.8
20260904153654 80 112 2.0 8.0 0.00 0.10 0.10 73 1015.1
20260904153150 80 252 3.0 6.0 0.00 0.10 0.10 73 1015.0
20260904152646 80 7 2.0 5.0 0.00 0.10 0.10 74 1015.1
20260904152141 79 150 1.0 6.0 0.00 0.10 0.10 74 1015.0
20260904151636 79 137 2.0 5.0 0.00 0.10 0.10 76 1015.2
20260904151134 79 93 1.0 1.0 0.00 0.10 0.10 78 1015.1
20260904150630 79 64 2.0 5.0 0.00 0.10 0.10 78 1015.1
20260904150126 79 55 2.0 2.0 0.00 0.10 0.10 78 1015.2
20260904145624 78 128 0.0 2.0 0.00 0.10 0.10 80 1015.2
20260904145119 78 91 1.0 6.0 0.00 0.10 0.10 81 1015.3
20260904144615 78 181 1.0 2.0 0.00 0.10 0.10 83 1015.3
20260904144111 78 86 0.0 1.0 0.00 0.10 0.10 85 1015.2
20260904143607 77 77 2.0 3.0 0.00 0.10 0.10 84 1015.3
20260904143103 77 269 1.0 5.0 0.00 0.10 0.10 85 1015.2
20260904142559 77 83 1.0 3.0 0.00 0.10 0.10 87 1015.3
20260904142054 77 56 2.0 5.0 0.00 0.10 0.10 87 1015.1
20260904141549 77 126 1.0 1.0 0.00 0.10 0.10 91 1015.1
20260904141044 76 101 0.0 3.0 0.00 0.10 0.10 92 1015.2
20260904140540 76 21 1.0 2.0 0.00 0.10 0.10 93 1015.1
20260904140034 75 321 2.0 2.0 0.00 0.10 0.10 94 1015.0
20260904135533 75 66 1.0 5.0 0.00 0.10 0.10 94 1015.2
20260904135029 75 39 0.0 5.0 0.00 0.10 0.10 94 1015.0
20260904134525 75 55 2.0 3.0 0.00 0.10 0.10 95 1015.0
20260904134019 74 327 1.0 3.0 0.00 0.10 0.10 95 1015.0
20260904133513 74 57 1.0 3.0 0.00 0.10 0.10 96 1015.0
20260904133010 73 147 1.0 2.0 0.00 0.10 0.10 96 1014.9
20260904132504 73 147 0.0 2.0 0.00 0.10 0.10 96 1014.9
20260904132003 73 119 0.0 1.0 0.00 0.10 0.10 97 1015.0
20260904131458 73 112 1.0 1.0 0.00 0.10 0.10 97 1014.8
20260904130954 72 109 1.0 1.0 0.00 0.10 0.10 97 1014.9
20260904130453 72 90 0.0 1.0 0.00 0.10 0.10 97 1015.0
20260904125948 71 71 2.0 5.0 0.00 0.10 0.10 97 1014.8
20260904125444 71 145 0.0 1.0 0.00 0.10 0.10 98 1015.3
20260904124944 71 111 0.0 1.0 0.00 0.10 0.10 98 1015.0
20260904124440 70 112 0.0 1.0 0.00 0.10 0.10 98 1015.0
20260904123936 70 90 0.0 1.0 0.00 0.10 0.10 98 1015.1
20260904123430 70 102 0.0 2.0 0.00 0.10 0.10 98 1015.0
20260904122925 69 114 0.0 1.0 0.00 0.10 0.10 98 1015.0
20260904122420 69 102 1.0 2.0 0.00 0.10 0.10 98 1015.0
20260904121914 69 105 0.0 3.0 0.00 0.10 0.10 98 1015.0
20260904121411 69 97 0.0 1.0 0.00 0.10 0.10 98 1015.2
20260904120907 69 68 1.0 1.0 0.00 0.10 0.10 98 1015.2
20260904120402 69 60 1.0 2.0 0.00 0.10 0.10 98 1014.8
20260904115857 69 99 0.0 0.0 0.00 0.10 0.10 98 1014.9
20260904115352 69 106 0.0 0.0 0.00 0.10 0.10 98 1015.1
20260904114847 69 108 0.0 0.0 0.00 0.10 0.10 98 1015.0
20260904114342 69 105 0.0 0.0 0.00 0.10 0.10 98 1015.0
20260904113837 69 108 0.0 1.0 0.00 0.10 0.10 98 1014.8
20260904113336 68 109 0.0 0.0 0.00 0.10 0.10 98 1014.7
20260904112832 68 106 0.0 0.0 0.00 0.10 0.10 98 1014.6
20260904112327 68 104 0.0 0.0 0.00 0.10 0.10 97 1014.6
20260904111822 68 97 0.0 0.0 0.00 0.10 0.10 97 1014.8
20260904111318 68 101 0.0 0.0 0.00 0.10 0.10 97 1014.4
20260904110814 68 81 0.0 0.0 0.00 0.10 0.10 97 1014.4
20260904110312 68 98 0.0 0.0 0.00 0.10 0.10 97 1014.6
20260904105807 68 103 0.0 0.0 0.00 0.10 0.10 97 1014.6
20260904105305 68 91 0.0 0.0 0.00 0.10 0.10 97 1014.6
20260904104757 68 93 0.0 0.0 0.00 0.10 0.10 97 1014.6
20260904104253 68 103 0.0 0.0 0.00 0.10 0.10 97 1014.6
20260904103750 68 105 0.0 0.0 0.00 0.10 0.10 97 1014.4
20260904103249 68 105 0.0 0.0 0.00 0.10 0.10 97 1014.4
20260904102745 68 97 0.0 0.0 0.00 0.10 0.10 97 1014.3
20260904102240 68 102 0.0 0.0 0.00 0.10 0.10 97 1014.5
20260904101737 68 102 0.0 0.0 0.00 0.10 0.10 97 1014.3
20260904101233 69 101 0.0 0.0 0.00 0.10 0.10 97 1014.3
20260904100728 69 98 0.0 0.0 0.00 0.10 0.10 97 1014.2
20260904100224 69 74 0.0 0.0 0.00 0.10 0.10 97 1014.1
20260904095723 69 99 0.0 1.0 0.00 0.10 0.10 97 1014.2
20260904095218 69 99 0.0 1.0 0.00 0.10 0.10 97 1014.0
20260904094714 69 35 1.0 2.0 0.00 0.10 0.10 97 1014.0
20260904094214 69 87 0.0 0.0 0.00 0.10 0.10 97 1013.9
20260904093710 69 104 0.0 0.0 0.00 0.10 0.10 97 1013.9
20260904093209 69 105 0.0 0.0 0.00 0.10 0.10 97 1013.7
20260904092706 69 107 0.0 0.0 0.00 0.10 0.10 97 1013.8
20260904092202 70 107 0.0 0.0 0.00 0.10 0.10 97 1013.8
20260904091657 70 107 0.0 0.0 0.00 0.10 0.10 97 1013.7
20260904091152 70 107 0.0 0.0 0.00 0.10 0.10 97 1013.8
20260904090648 70 107 0.0 0.0 0.00 0.10 0.10 97 1013.8
20260904090143 70 106 0.0 0.0 0.00 0.10 0.10 97 1013.9
20260904085638 70 107 0.0 0.0 0.00 0.10 0.10 97 1013.8
20260904085138 70 106 0.0 0.0 0.00 0.10 0.10 97 1013.8
20260904084633 70 109 0.0 0.0 0.00 0.10 0.10 97 1013.7
20260904084129 70 114 0.0 0.0 0.00 0.10 0.10 97 1013.6
20260904083625 70 113 0.0 0.0 0.00 0.10 0.10 97 1013.7
20260904083121 71 124 0.0 0.0 0.00 0.10 0.10 97 1013.4
20260904082616 71 100 0.0 1.0 0.00 0.10 0.10 97 1013.7
20260904082112 71 80 1.0 1.0 0.00 0.10 0.10 97 1013.6
20260904081607 71 110 0.0 0.0 0.00 0.10 0.10 97 1013.5
20260904081102 71 149 1.0 1.0 0.00 0.10 0.10 97 1013.5
20260904080558 71 110 0.0 0.0 0.00 0.10 0.10 97 1013.5
20260904080054 71 105 0.0 0.0 0.00 0.10 0.10 97 1013.5
20260904075550 71 117 0.0 0.0 0.07 0.10 0.10 97 1013.7
20260904075049 72 108 0.0 2.0 0.00 0.09 0.09 97 1013.6
20260904074549 72 154 1.0 1.0 0.00 0.09 0.09 97 1014.0
20260904074044 72 106 0.0 0.0 0.00 0.09 0.09 97 1014.0